ISS DEB (52432 NORAD) Tracking and Keplerian Element Data
This shows tracking and keplerian element data for the satellite.
Feedback or suggestion? Click here.
Element | Value |
Catalog | 52432 |
Name | ISS DEB |
Epoch Orbit | 231 |
Epoch Day | 138.19734817 |
Epoch Year | 2022 |
RAAN | 124.3193 |
Inclination | 51.6418 |
Eccentricity | 0.0010297 |
Argument of Perigee | 136.5693 |
Mean Anonmoly | 229.2674 |
Mean Motion | 15.61872765 |
Decay Rate | 0.00561148 |
L1 | 1 52432U 98067TN 22138.19734817 .00561148 00000+0 59048-2 0 9994 |
L2 | 2 52432 51.6418 124.3193 0010297 136.5693 229.2674 15.61872765 2314 |
Live tracking and technical data element details for ISS DEB (NORAD 52432). ISS DEB can be tracked NOW for your location showing map with azimuth and elevation plus other details from your city location.
Track the satellite on the map from your city or location and see movement details for azimuth, elevation, latitude, longitude, range, height, and movement on the map or in text.
IsCatalogInMostPopularTable: catalog: 52432, numindb: 83
Update: records affected: 1
GetName: 52432 ISS DEB
Hit Count: updated at: Sat, 25 Jun 2022 04:31:00 GMT